| time (UTC) | temp C | wind direction | speed KPH | gust KPH | rain 1hr cm | rain 24hr cm | rain mn cm | humidity % | barometer mb |
| 20260508153024 | 20 | 98 | 12.9 | 19.3 | 0.00 | 0.00 | 0.00 | 33 | 880.0 |
| 20260508151529 | 20 | 137 | 9.7 | 20.9 | 0.00 | 0.00 | 0.00 | 36 | 880.0 |
| 20260508150024 | 19 | 114 | 9.7 | 14.5 | 0.00 | 0.00 | 0.00 | 37 | 879.9 |
| 20260508144514 | 18 | 157 | 8.0 | 16.1 | 0.00 | 0.00 | 0.00 | 39 | 879.8 |
| 20260508143011 | 18 | 116 | 6.4 | 12.9 | 0.00 | 0.00 | 0.00 | 40 | 879.6 |
| 20260508141516 | 17 | 110 | 4.8 | 11.3 | 0.00 | 0.00 | 0.00 | 40 | 879.6 |
| 20260508140009 | 17 | 107 | 3.2 | 9.7 | 0.00 | 0.00 | 0.00 | 42 | 879.7 |
| 20260508134600 | 16 | 163 | 1.6 | 11.3 | 0.00 | 0.00 | 0.00 | 46 | 879.4 |
| 20260508133103 | 15 | 121 | 6.4 | 9.7 | 0.00 | 0.00 | 0.00 | 44 | 879.4 |
| 20260508131559 | 15 | 109 | 8.0 | 12.9 | 0.00 | 0.00 | 0.00 | 44 | 879.3 |
| 20260508130111 | 14 | 80 | 4.8 | 11.3 | 0.00 | 0.00 | 0.00 | 46 | 879.2 |
| 20260508124557 | 13 | 138 | 4.8 | 9.7 | 0.00 | 0.00 | 0.00 | 50 | 879.0 |
| 20260508123101 | 12 | 105 | 4.8 | 8.0 | 0.00 | 0.00 | 0.00 | 56 | 879.0 |
| 20260508121629 | 12 | 114 | 3.2 | 8.0 | 0.00 | 0.00 | 0.00 | 58 | 879.0 |
| 20260508120056 | 12 | 121 | 3.2 | 4.8 | 0.00 | 0.00 | 0.00 | 61 | 879.0 |
| 20260508114556 | 12 | 129 | 1.6 | 6.4 | 0.00 | 0.00 | 0.00 | 61 | 879.0 |
| 20260508113054 | 12 | 121 | 1.6 | 6.4 | 0.00 | 0.00 | 0.00 | 63 | 878.9 |
| 20260508111552 | 13 | 124 | 1.6 | 6.4 | 0.00 | 0.00 | 0.00 | 62 | 878.9 |
| 20260508110047 | 13 | 136 | 3.2 | 6.4 | 0.00 | 0.00 | 0.00 | 59 | 879.0 |
| 20260508104552 | 13 | 123 | 3.2 | 6.4 | 0.00 | 0.00 | 0.00 | 59 | 879.0 |
| 20260508103045 | 15 | 115 | 3.2 | 11.3 | 0.00 | 0.00 | 0.00 | 58 | 879.1 |
| 20260508101545 | 15 | 115 | 6.4 | 11.3 | 0.00 | 0.00 | 0.00 | 55 | 879.2 |
| 20260508100038 | 15 | 137 | 4.8 | 9.7 | 0.00 | 0.00 | 0.00 | 53 | 879.2 |
| 20260508094544 | 15 | 113 | 6.4 | 12.9 | 0.00 | 0.00 | 0.00 | 47 | 879.2 |
| 20260508093034 | 15 | 117 | 4.8 | 11.3 | 0.00 | 0.00 | 0.00 | 45 | 879.3 |
| 20260508091546 | 15 | 141 | 6.4 | 11.3 | 0.00 | 0.00 | 0.00 | 43 | 879.4 |
| 20260508090042 | 16 | 123 | 6.4 | 17.7 | 0.00 | 0.00 | 0.00 | 40 | 879.5 |
| 20260508084528 | 15 | 103 | 6.4 | 12.9 | 0.00 | 0.00 | 0.00 | 42 | 879.5 |
| 20260508083026 | 16 | 144 | 6.4 | 17.7 | 0.00 | 0.00 | 0.00 | 42 | 879.8 |
| 20260508081532 | 16 | 131 | 9.7 | 14.5 | 0.00 | 0.00 | 0.00 | 42 | 879.8 |
| 20260508080026 | 16 | 150 | 6.4 | 14.5 | 0.00 | 0.00 | 0.00 | 44 | 879.9 |
| 20260508074519 | 15 | 146 | 6.4 | 17.7 | 0.00 | 0.00 | 0.00 | 45 | 880.0 |
| 20260508073017 | 15 | 134 | 6.4 | 11.3 | 0.00 | 0.00 | 0.00 | 46 | 880.2 |
| 20260508071522 | 16 | 136 | 6.4 | 11.3 | 0.00 | 0.00 | 0.00 | 46 | 880.1 |
| 20260508070014 | 15 | 136 | 9.7 | 14.5 | 0.00 | 0.00 | 0.00 | 48 | 880.2 |
| 20260508064519 | 15 | 140 | 4.8 | 11.3 | 0.00 | 0.00 | 0.00 | 52 | 880.2 |
| 20260508063014 | 15 | 110 | 6.4 | 12.9 | 0.00 | 0.00 | 0.00 | 54 | 880.3 |
| 20260508061517 | 15 | 149 | 4.8 | 11.3 | 0.00 | 0.00 | 0.00 | 56 | 880.3 |
| 20260508060020 | 15 | 157 | 4.8 | 11.3 | 0.00 | 0.00 | 0.00 | 57 | 880.3 |
| 20260508054512 | 15 | 143 | 4.8 | 8.0 | 0.00 | 0.00 | 0.00 | 56 | 880.3 |
| 20260508053011 | 15 | 114 | 4.8 | 11.3 | 0.00 | 0.00 | 0.00 | 54 | 880.4 |
| 20260508051510 | 15 | 136 | 4.8 | 14.5 | 0.00 | 0.00 | 0.00 | 52 | 880.4 |
| 20260508050010 | 15 | 138 | 4.8 | 9.7 | 0.00 | 0.00 | 0.00 | 49 | 880.4 |
| 20260508044510 | 15 | 147 | 4.8 | 9.7 | 0.00 | 0.00 | 0.00 | 47 | 880.4 |
| 20260508043014 | 15 | 134 | 4.8 | 11.3 | 0.00 | 0.00 | 0.00 | 46 | 880.3 |
| 20260508041509 | 15 | 159 | 6.4 | 16.1 | 0.00 | 0.00 | 0.00 | 48 | 880.1 |
| 20260508040008 | 15 | 114 | 9.7 | 14.5 | 0.00 | 0.00 | 0.00 | 48 | 880.0 |
| 20260508034508 | 15 | 101 | 8.0 | 12.9 | 0.00 | 0.00 | 0.00 | 49 | 879.9 |
| 20260508033008 | 15 | 109 | 9.7 | 16.1 | 0.00 | 0.00 | 0.00 | 49 | 879.8 |
| 20260508031506 | 15 | 134 | 6.4 | 12.9 | 0.00 | 0.00 | 0.00 | 53 | 879.6 |
| 20260508030007 | 16 | 123 | 6.4 | 14.5 | 0.00 | 0.00 | 0.00 | 54 | 879.5 |
| 20260508024507 | 16 | 113 | 9.7 | 14.5 | 0.00 | 0.00 | 0.00 | 55 | 879.3 |
| 20260508023006 | 16 | 134 | 9.7 | 22.5 | 0.00 | 0.00 | 0.00 | 60 | 879.3 |
| 20260508021505 | 17 | 123 | 8.0 | 19.3 | 0.00 | 0.00 | 0.00 | 57 | 879.3 |
| 20260508020112 | 18 | 150 | 9.7 | 22.5 | 0.00 | 0.00 | 0.00 | 47 | 879.2 |
| 20260508014504 | 19 | 162 | 11.3 | 22.5 | 0.00 | 0.00 | 0.00 | 43 | 879.2 |
| 20260508013004 | 19 | 117 | 12.9 | 24.1 | 0.00 | 0.00 | 0.00 | 42 | 879.2 |
| 20260508011502 | 20 | 96 | 12.9 | 20.9 | 0.00 | 0.00 | 0.00 | 47 | 879.2 |
| 20260508010002 | 20 | 128 | 12.9 | 24.1 | 0.00 | 0.00 | 0.00 | 46 | 879.2 |
| 20260508004501 | 20 | 149 | 12.9 | 22.5 | 0.00 | 0.00 | 0.00 | 50 | 879.1 |
| 20260508003001 | 20 | 119 | 12.9 | 24.1 | 0.00 | 0.00 | 0.00 | 47 | 879.1 |
| 20260508001605 | 21 | 115 | 14.5 | 22.5 | 0.00 | 0.00 | 0.00 | 53 | 879.1 |
| 20260508000105 | 21 | 107 | 12.9 | 25.7 | 0.00 | 0.00 | 0.00 | 52 | 879.1 |
| 20260507234559 | 21 | 128 | 16.1 | 24.1 | 0.00 | 0.00 | 0.00 | 50 | 879.0 |
| 20260507233058 | 21 | 140 | 12.9 | 25.7 | 0.00 | 0.00 | 0.00 | 53 | 879.0 |
| 20260507231558 | 21 | 96 | 11.3 | 24.1 | 0.00 | 0.00 | 0.00 | 52 | 879.0 |
| 20260507230057 | 21 | 153 | 17.7 | 25.7 | 0.00 | 0.00 | 0.00 | 49 | 879.1 |
| 20260507224555 | 21 | 102 | 12.9 | 27.4 | 0.00 | 0.00 | 0.00 | 49 | 879.1 |
| 20260507223055 | 21 | 114 | 12.9 | 25.7 | 0.00 | 0.00 | 0.00 | 49 | 879.2 |
| 20260507221554 | 21 | 150 | 14.5 | 25.7 | 0.00 | 0.00 | 0.00 | 49 | 879.2 |
| 20260507220052 | 21 | 117 | 17.7 | 29.0 | 0.00 | 0.00 | 0.00 | 48 | 879.4 |
| 20260507214555 | 21 | 126 | 14.5 | 24.1 | 0.00 | 0.00 | 0.00 | 46 | 879.7 |
| 20260507213056 | 21 | 116 | 16.1 | 25.7 | 0.00 | 0.00 | 0.00 | 49 | 879.7 |
| 20260507211553 | 22 | 161 | 14.5 | 22.5 | 0.00 | 0.00 | 0.00 | 49 | 879.7 |
| 20260507210048 | 22 | 170 | 12.9 | 24.1 | 0.00 | 0.00 | 0.00 | 50 | 879.9 |
| 20260507204548 | 22 | 92 | 17.7 | 25.7 | 0.00 | 0.00 | 0.00 | 44 | 880.0 |
| 20260507203048 | 22 | 104 | 14.5 | 25.7 | 0.00 | 0.00 | 0.00 | 45 | 880.0 |
| 20260507201550 | 22 | 165 | 14.5 | 20.9 | 0.00 | 0.00 | 0.00 | 49 | 880.0 |
| 20260507200047 | 22 | 98 | 6.4 | 20.9 | 0.00 | 0.00 | 0.00 | 49 | 880.0 |
| 20260507194547 | 23 | 168 | 12.9 | 20.9 | 0.00 | 0.00 | 0.00 | 45 | 880.2 |
| 20260507193046 | 23 | 100 | 14.5 | 20.9 | 0.00 | 0.00 | 0.00 | 45 | 880.3 |
| 20260507191545 | 23 | 273 | 8.0 | 19.3 | 0.00 | 0.00 | 0.00 | 26 | 880.5 |
| 20260507190043 | 23 | 292 | 3.2 | 16.1 | 0.00 | 0.00 | 0.00 | 28 | 880.5 |
| 20260507184542 | 23 | 244 | 6.4 | 20.9 | 0.00 | 0.00 | 0.00 | 28 | 880.6 |
| 20260507183050 | 23 | 350 | 6.4 | 14.5 | 0.00 | 0.00 | 0.00 | 24 | 880.8 |
| 20260507181539 | 23 | 279 | 9.7 | 19.3 | 0.00 | 0.00 | 0.00 | 32 | 880.8 |
| 20260507180047 | 22 | 268 | 17.7 | 27.4 | 0.00 | 0.00 | 0.00 | 32 | 880.8 |
| 20260507174535 | 22 | 275 | 12.9 | 24.1 | 0.00 | 0.00 | 0.00 | 33 | 880.9 |
| 20260507173044 | 22 | 277 | 16.1 | 24.1 | 0.00 | 0.00 | 0.00 | 37 | 880.9 |
| 20260507171533 | 22 | 296 | 9.7 | 22.5 | 0.00 | 0.00 | 0.00 | 33 | 880.8 |
| 20260507170044 | 22 | 289 | 17.7 | 25.7 | 0.00 | 0.00 | 0.00 | 32 | 880.8 |
| 20260507164530 | 22 | 284 | 9.7 | 19.3 | 0.00 | 0.00 | 0.00 | 31 | 880.7 |
| 20260507163029 | 22 | 285 | 14.5 | 20.9 | 0.00 | 0.00 | 0.00 | 33 | 880.8 |
| 20260507161528 | 22 | 285 | 8.0 | 16.1 | 0.00 | 0.00 | 0.00 | 33 | 880.8 |
| 20260507160026 | 21 | 290 | 4.8 | 11.3 | 0.00 | 0.00 | 0.00 | 33 | 880.7 |
| 20260507154519 | 18 | 294 | 3.2 | 6.4 | 0.00 | 0.00 | 0.00 | 43 | 880.7 |